St. Paul Lake Elmo, MN

9:48 AM CDT on June 23, 2017 (GMT -0500)
St. Paul Lake Elmo

Weather History for K21D - September, 2013

Change the Weather History Date:

Thursday, September 26, 2013

  Actual Average (KSTP) Record (KSTP)
Temperature  
Mean Temperature 66 °F -  
Max Temperature 78 °F 65 °F 86 °F (2008)
Min Temperature 55 °F 44 °F 39 °F (2000)
Cooling Degree Days 2    
Growing Degree Days 16 (Base 50)    
Moisture  
Dew Point 55 °F    
Average Humidity 69    
Maximum Humidity 88    
Minimum Humidity 50    
Precipitation  
Precipitation 0.00 in - - ()
Sea Level Pressure  
Sea Level Pressure 29.93 in    
Wind  
Wind Speed 9 mph (SE)    
Max Wind Speed 17 mph    
Max Gust Speed 28 mph    
Visibility 10 miles    
Events      
Averages and records for this station are not official NWS values.
T = Trace of Precipitation, MM = Missing Value Source: NWS Daily Summary

Daily Weather History Graph

Daily Weather History Graph

Search for Another Location

Airport or City:

Trip Planner

Search our weather history database for the weather conditions in past years. The results will help you decide how hot, cold, wet, or windy it might be!

Date:

Astronomy

Sep. 26, 2013 Rise Set
Actual Time 7:03 AM CDT 7:00 PM CDT
Civil Twilight 6:34 AM CDT 7:30 PM CDT
Nautical Twilight 6:00 AM CDT 8:04 PM CDT
Astronomical Twilight 5:25 AM CDT 8:38 PM CDT
Moon 11:46 PM CDT (9/26) 2:09 PM CDT (9/26)
Length of Visible Light 12h 55m
Length of Day
11h 57m
Waning Gibbous, 54% of the Moon is Illuminated
Sep 26
Waning Gibbous
Sep 26
Last Quarter
Oct 4
New
Oct 11
First Quarter
Oct 18
Full

Hourly Weather History & Observations

Time (CDT) Temp. Dew Point Humidity Pressure Visibility Wind Dir Wind Speed Gust Speed Precip Events Conditions
12:12 AM 57.2 °F 51.8 °F 82% 29.95 in 10.0 mi ESE 5.8 mph - N/A   Clear
12:32 AM 57.2 °F 51.8 °F 82% 29.94 in 10.0 mi ESE 5.8 mph - N/A   Clear
12:51 AM 59.0 °F 51.8 °F 77% 29.95 in 10.0 mi SE 4.6 mph - N/A   Clear
1:12 AM 57.2 °F 51.8 °F 82% 29.95 in 10.0 mi ESE 4.6 mph - N/A   Clear
1:32 AM 57.2 °F 51.8 °F 82% 29.95 in 10.0 mi SE 4.6 mph - N/A   Clear
1:51 AM 57.2 °F 51.8 °F 82% 29.95 in 10.0 mi SE 6.9 mph - N/A   Clear
2:12 AM 55.4 °F 51.8 °F 88% 29.96 in 10.0 mi SSE 4.6 mph - N/A   Clear
2:32 AM 55.4 °F 51.8 °F 88% 29.96 in 10.0 mi SE 4.6 mph - N/A   Clear
2:51 AM 57.2 °F 51.8 °F 82% 29.95 in 10.0 mi SE 5.8 mph - N/A   Clear
3:12 AM 55.4 °F 51.8 °F 88% 29.95 in 10.0 mi SE 5.8 mph - N/A   Clear
3:32 AM 55.4 °F 51.8 °F 88% 29.95 in 10.0 mi SE 4.6 mph - N/A   Clear
3:51 AM 55.4 °F 51.8 °F 88% 29.95 in 10.0 mi SE 5.8 mph - N/A   Clear
4:12 AM 55.4 °F 51.8 °F 88% 29.94 in 10.0 mi SE 6.9 mph - N/A   Clear
4:32 AM 55.4 °F 51.8 °F 88% 29.94 in 10.0 mi SE 8.1 mph - N/A   Clear
4:51 AM 55.4 °F 51.8 °F 88% 29.94 in 10.0 mi SE 6.9 mph - N/A   Clear
5:12 AM 55.4 °F 51.8 °F 88% 29.94 in 10.0 mi SE 5.8 mph - N/A   Clear
5:32 AM 55.4 °F 51.8 °F 88% 29.94 in 10.0 mi SE 5.8 mph - N/A   Clear
5:52 AM 55.4 °F 51.8 °F 88% 29.95 in 10.0 mi SSE 6.9 mph - N/A   Clear
6:11 AM 55.4 °F 51.8 °F 88% 29.95 in 10.0 mi SE 6.9 mph - N/A   Clear
6:32 AM 55.4 °F 50.0 °F 82% 29.95 in 10.0 mi ESE 5.8 mph - N/A   Clear
6:52 AM 55.4 °F 50.0 °F 82% 29.95 in 10.0 mi SE 8.1 mph - N/A   Clear
7:11 AM 55.4 °F 50.0 °F 82% 29.96 in 10.0 mi SE 5.8 mph - N/A   Clear
7:32 AM 55.4 °F 50.0 °F 82% 29.97 in 10.0 mi SSE 5.8 mph - N/A   Clear
7:52 AM 55.4 °F 50.0 °F 82% 29.97 in 10.0 mi SE 9.2 mph - N/A   Clear
8:11 AM 57.2 °F 51.8 °F 82% 29.97 in 10.0 mi SE 6.9 mph - N/A   Clear
8:32 AM 59.0 °F 51.8 °F 77% 29.97 in 10.0 mi SE 8.1 mph - N/A   Clear
8:52 AM 59.0 °F 51.8 °F 77% 29.97 in 10.0 mi SE 5.8 mph - N/A   Clear
9:11 AM 60.8 °F 51.8 °F 72% 29.98 in 10.0 mi SE 9.2 mph - N/A   Mostly Cloudy
9:32 AM 60.8 °F 51.8 °F 72% 29.97 in 10.0 mi SE 9.2 mph 17.3 mph N/A   Overcast
9:52 AM 62.6 °F 51.8 °F 68% 29.97 in 10.0 mi SE 10.4 mph 17.3 mph N/A   Scattered Clouds
10:11 AM 64.4 °F 51.8 °F 64% 29.97 in 10.0 mi SE 9.2 mph - N/A   Clear
10:32 AM 66.2 °F 51.8 °F 60% 29.97 in 10.0 mi SE 12.7 mph 17.3 mph N/A   Clear
10:52 AM 68.0 °F 51.8 °F 56% 29.97 in 10.0 mi SE 12.7 mph 17.3 mph N/A   Clear
11:12 AM 69.8 °F 53.6 °F 56% 29.97 in 10.0 mi SE 15.0 mph 20.7 mph N/A   Clear
11:32 AM 69.8 °F 53.6 °F 56% 29.96 in 10.0 mi SE 15.0 mph - N/A   Clear
11:51 AM 71.6 °F 53.6 °F 53% 29.96 in 10.0 mi SE 15.0 mph 20.7 mph N/A   Clear
12:12 PM 71.6 °F 55.4 °F 57% 29.94 in 10.0 mi SE 17.3 mph - N/A   Clear
12:32 PM 73.4 °F 55.4 °F 53% 29.94 in 10.0 mi SSE 13.8 mph 21.9 mph N/A   Clear
12:51 PM 73.4 °F 55.4 °F 53% 29.93 in 10.0 mi SSE 13.8 mph 21.9 mph N/A   Clear
1:12 PM 75.2 °F 55.4 °F 50% 29.93 in 10.0 mi SSE 16.1 mph 21.9 mph N/A   Clear
1:32 PM 75.2 °F 57.2 °F 53% 29.93 in 10.0 mi SE 16.1 mph 19.6 mph N/A   Clear
1:51 PM 75.2 °F 57.2 °F 53% 29.92 in 10.0 mi SSE 17.3 mph 21.9 mph N/A   Clear
2:12 PM 77.0 °F 57.2 °F 50% 29.91 in 10.0 mi SSE 11.5 mph 20.7 mph N/A   Clear
2:32 PM 77.0 °F 59.0 °F 54% 29.90 in 10.0 mi SSE 15.0 mph 21.9 mph N/A   Clear
2:51 PM 77.0 °F 59.0 °F 54% 29.90 in 10.0 mi SE 13.8 mph 23.0 mph N/A   Clear
3:12 PM 78.8 °F 59.0 °F 51% 29.90 in 10.0 mi SE 15.0 mph 21.9 mph N/A   Clear
3:32 PM 78.8 °F 59.0 °F 51% 29.90 in 10.0 mi SSE 15.0 mph 21.9 mph N/A   Clear
3:51 PM 78.8 °F 60.8 °F 54% 29.89 in 10.0 mi SSE 13.8 mph 21.9 mph N/A   Clear
4:12 PM 78.8 °F 59.0 °F 51% 29.88 in 10.0 mi SSE 15.0 mph 27.6 mph N/A   Clear
4:32 PM 78.8 °F 59.0 °F 51% 29.88 in 10.0 mi SSE 16.1 mph 23.0 mph N/A   Clear
4:52 PM 78.8 °F 59.0 °F 51% 29.88 in 10.0 mi SSE 13.8 mph 24.2 mph N/A   Clear
5:12 PM 78.8 °F 59.0 °F 51% 29.88 in 10.0 mi SE 13.8 mph 21.9 mph N/A   Clear
5:32 PM 78.8 °F 59.0 °F 51% 29.88 in 10.0 mi SE 12.7 mph 18.4 mph N/A   Clear
5:51 PM 78.8 °F 60.8 °F 54% 29.88 in 10.0 mi SE 12.7 mph - N/A   Clear
6:12 PM 77.0 °F 60.8 °F 57% 29.88 in 10.0 mi SE 12.7 mph 18.4 mph N/A   Clear
6:31 PM 75.2 °F 60.8 °F 61% 29.88 in 10.0 mi SE 11.5 mph 18.4 mph N/A   Clear
6:52 PM 73.4 °F 60.8 °F 65% 29.88 in 10.0 mi ESE 8.1 mph - N/A   Clear
7:12 PM 73.4 °F 60.8 °F 65% 29.89 in 10.0 mi SE 10.4 mph 19.6 mph N/A   Clear
7:31 PM 71.6 °F 60.8 °F 69% 29.89 in 10.0 mi SE 13.8 mph 18.4 mph N/A   Clear
7:52 PM 71.6 °F 60.8 °F 69% 29.89 in 10.0 mi SE 11.5 mph - N/A   Clear
8:12 PM 71.6 °F 60.8 °F 69% 29.89 in 10.0 mi SE 10.4 mph 17.3 mph N/A   Clear
8:31 PM 71.6 °F 59.0 °F 64% 29.89 in 10.0 mi SE 10.4 mph 19.6 mph N/A   Clear
8:52 PM 69.8 °F 59.0 °F 68% 29.90 in 10.0 mi SE 11.5 mph - N/A   Clear
9:12 PM 69.8 °F 59.0 °F 68% 29.90 in 10.0 mi SE 13.8 mph 23.0 mph N/A   Clear
9:31 PM 69.8 °F 59.0 °F 68% 29.91 in 10.0 mi SE 10.4 mph 16.1 mph N/A   Clear
9:52 PM 69.8 °F 59.0 °F 68% 29.92 in 10.0 mi SE 9.2 mph 18.4 mph N/A   Clear
10:12 PM 69.8 °F 59.0 °F 68% 29.92 in 10.0 mi SE 10.4 mph 19.6 mph N/A   Clear
10:31 PM 69.8 °F 59.0 °F 68% 29.92 in 10.0 mi SE 11.5 mph 18.4 mph N/A   Clear
10:52 PM 69.8 °F 59.0 °F 68% 29.92 in 10.0 mi SE 12.7 mph 17.3 mph N/A   Clear
11:12 PM 69.8 °F 59.0 °F 68% 29.92 in 10.0 mi SSE 11.5 mph 17.3 mph N/A   Clear
11:31 PM 69.8 °F 59.0 °F 68% 29.93 in 10.0 mi SE 11.5 mph 21.9 mph N/A   Clear
11:52 PM 69.8 °F 59.0 °F 68% 29.94 in 10.0 mi SE 10.4 mph 17.3 mph N/A   Clear